Bowen Airport AWS Observation History
Time Wind Speed Temp Pressure Rel. Hum Rain
03/02:30pm ENE 8-12 kts 30.1°c 1008.9 hPa 59% 0.0mm
03/02:00pm NNE 9-13 kts 29.8°c 1009.0 hPa 59% 0.0mm
03/01:30pm NE 8-12 kts 30.1°c 1009.2 hPa 57% 0.0mm
03/01:00pm E 7-12 kts 30.9°c 1009.8 hPa 53% 0.0mm
03/12:30pm E 5-9 kts 30.8°c 1010.3 hPa 54% 0.0mm
03/12:00pm E 5-9 kts 29.4°c 1010.9 hPa 57% 0.0mm
03/11:30am SE 5-7 kts 28.6°c 1011.3 hPa 60% 0.0mm
03/11:00am ESE 5-8 kts 28.9°c 1011.6 hPa 61% 0.0mm
03/10:30am ESE 6-8 kts 28.9°c 1012.2 hPa 60% 0.0mm
03/10:00am ESE 7-9 kts 28.5°c 1012.4 hPa 64% 0.0mm
03/09:30am SE 6-9 kts 28.0°c 1012.3 hPa 65% 0.0mm
03/09:00am ESE 6-9 kts 27.5°c 1012.1 hPa 68% 0.0mm
03/08:30am SSE 7-9 kts 26.7°c 1012.4 hPa 74% 0.0mm
03/08:00am SW 4-6 kts 24.6°c 1012.1 hPa 83% 0.0mm
03/07:30am SW 5-6 kts 23.1°c 1011.8 hPa 90% 0.0mm
03/07:00am SSW 5-6 kts 21.8°c 1011.5 hPa 95% 0.0mm
03/06:30am SSE 3-4 kts 20.9°c 1011.2 hPa 96% 0.0mm
03/06:00am SSE 3-4 kts 20.7°c 1010.8 hPa 96% 0.0mm
03/05:30am SSE 2-3 kts 20.5°c 1010.5 hPa 94% 0.0mm
03/05:00am SSE 5 kts 22.0°c 1010.2 hPa 93% 0.0mm
03/04:30am SSE 4-6 kts 21.9°c 1010.1 hPa 95% 0.0mm
03/04:00am SSE 3-4 kts 22.4°c 1010.1 hPa 91% 0.0mm
03/03:30am SSE 5-6 kts 22.3°c 1010.1 hPa 92% 0.0mm
03/03:00am SSE 3-4 kts 21.8°c 1010.2 hPa 92% 0.0mm
03/02:30am SSE 2-3 kts 22.1°c 1010.3 hPa 93% 0.0mm
03/02:00am SSE 2-3 kts 21.5°c 1010.6 hPa 95% 0.0mm
03/01:30am SSE 5-6 kts 22.6°c 1010.7 hPa 92% 0.0mm
03/01:00am SSE 3-4 kts 21.7°c 1011.1 hPa 93% 0.0mm
03/12:30am SSE 3-5 kts 22.4°c 1011.5 hPa 92% 0.0mm
03/12:00am SSE 4 kts 22.6°c 1011.7 hPa 91% 0.0mm
Time Wind Speed Temp Pressure Rel. Hum Rain
02/11:30pm SSE 6-7 kts 23.0°c 1012.0 hPa 91% 0.0mm
02/11:00pm SE 4-5 kts 23.2°c 1011.8 hPa 89% 0.0mm
02/10:30pm SSE 5-8 kts 23.8°c 1012.1 hPa 91% 0.0mm
02/10:00pm SSE 4-5 kts 23.6°c 1012.1 hPa 87% 0.0mm
02/09:30pm SSE 5-7 kts 23.9°c 1012.2 hPa 86% 0.0mm
02/09:00pm SE 6-8 kts 24.9°c 1012.3 hPa 84% 0.0mm
02/08:30pm SSE 6-8 kts 24.9°c 1012.1 hPa 84% 0.0mm
02/08:00pm SE 10-12 kts 25.9°c 1011.8 hPa 81% 0.0mm
02/07:30pm ESE 12-15 kts 26.9°c 1011.7 hPa 71% 0.0mm
02/07:00pm E 11-14 kts 27.0°c 1011.3 hPa 69% 0.0mm
02/06:30pm E 12-17 kts 27.1°c 1011.0 hPa 71% 0.0mm
02/06:00pm E 12-16 kts 27.4°c 1010.8 hPa 68% 0.0mm
02/05:30pm E 12-17 kts 28.1°c 1010.6 hPa 63% 0.0mm
02/05:00pm E 14-18 kts 29.2°c 1010.5 hPa 56% 0.0mm
02/04:30pm E 14-19 kts 29.9°c 1010.3 hPa 54% 0.0mm
02/04:00pm E 14-18 kts 29.4°c 1010.2 hPa 58% 0.0mm
02/03:30pm E 14-17 kts 30.4°c 1010.2 hPa 50% 0.0mm
02/03:00pm ENE 12-15 kts 31.0°c 1010.2 hPa 51% 0.0mm
02/02:30pm E 10-14 kts 30.9°c 1010.3 hPa 53% 0.0mm
02/02:00pm E 11-17 kts 30.8°c 1010.6 hPa 56% 0.0mm
02/01:30pm E 10-13 kts 30.9°c 1011.0 hPa 54% 0.0mm
02/01:00pm ESE 9-12 kts 30.9°c 1011.6 hPa 57% 0.0mm
02/12:30pm ESE 7-11 kts 30.4°c 1011.9 hPa 55% 0.0mm
02/12:00pm ESE 9-12 kts 30.3°c 1012.4 hPa 58% 0.0mm
02/11:30am ESE 10-13 kts 30.0°c 1013.1 hPa 63% 0.0mm
02/11:00am ESE 12-15 kts 29.4°c 1013.3 hPa 65% 0.0mm
02/10:30am ESE 10-13 kts 29.2°c 1013.5 hPa 64% 0.0mm
02/10:00am SE 9-12 kts 29.2°c 1013.8 hPa 63% 0.0mm
02/09:30am SSE 9-13 kts 28.6°c 1014.1 hPa 65% 0.0mm
02/09:00am SE 8-11 kts 28.0°c 1013.8 hPa 66% 0.0mm
02/08:30am SE 8-10 kts 26.9°c 1013.7 hPa 72% 0.0mm
02/08:00am S 4-7 kts 25.7°c 1013.4 hPa 80% 0.0mm
02/07:30am SSE 3-4 kts 23.4°c 1013.2 hPa 90% 0.0mm
02/07:00am SSE 4-5 kts 20.9°c 1012.9 hPa 96% 0.0mm
02/06:30am SSE 4-5 kts 20.1°c 1012.6 hPa 97% 0.0mm
02/06:00am SSE 3-4 kts 20.5°c 1012.3 hPa 97% 0.0mm
02/05:30am SSE 3-4 kts 20.5°c 1012.1 hPa 97% 0.0mm
02/05:00am SSE 3-4 kts 20.6°c 1011.8 hPa 95% 0.0mm
02/04:30am SSE 2-3 kts 21.5°c 1011.5 hPa 91% 0.0mm
02/04:00am SSE 5-7 kts 22.3°c 1011.4 hPa 91% 0.0mm
02/03:30am SSE 6-9 kts 22.3°c 1011.2 hPa 91% 0.0mm
02/03:00am SSE 6-8 kts 22.5°c 1011.2 hPa 90% 0.0mm
02/02:30am SSE 5-7 kts 22.3°c 1011.4 hPa 91% 0.0mm
02/02:00am SSE 6-7 kts 22.4°c 1011.8 hPa 90% 0.0mm
02/01:30am SSE 6-7 kts 22.4°c 1012.2 hPa 91% 0.0mm
02/01:00am SSE 5-6 kts 22.1°c 1012.6 hPa 90% 0.0mm
02/12:30am SSE 4-5 kts 22.1°c 1013.0 hPa 89% 0.0mm
02/12:00am SSE 5-7 kts 22.6°c 1013.2 hPa 89% 0.0mm
Time Wind Speed Temp Pressure Rel. Hum Rain
01/11:30pm SSE 5-7 kts 22.9°c 1013.6 hPa 86% 0.0mm
01/11:00pm SE 6 kts 23.5°c 1014.1 hPa 86% 0.0mm
01/10:30pm SE 6-9 kts 24.3°c 1014.5 hPa 85% 0.0mm
01/10:00pm SSE 6-8 kts 23.6°c 1014.6 hPa 86% 0.0mm
01/09:30pm SSE 7-9 kts 24.0°c 1014.8 hPa 84% 0.0mm
01/09:00pm SE 9-11 kts 25.1°c 1014.6 hPa 80% 0.0mm
01/08:30pm SE 6-9 kts 25.0°c 1014.3 hPa 82% 0.0mm
01/08:00pm SSE 7-9 kts 24.8°c 1013.8 hPa 80% 0.0mm
01/07:30pm SE 10-14 kts 25.7°c 1013.3 hPa 77% 0.0mm
01/07:00pm SE 11-14 kts 26.1°c 1012.7 hPa 75% 0.0mm
01/06:30pm ESE 11-16 kts 27.3°c 1012.5 hPa 69% 0.0mm
01/06:00pm ESE 11-15 kts 27.8°c 1012.4 hPa 66% 0.0mm
01/05:30pm E 13-17 kts 28.1°c 1011.9 hPa 65% 0.0mm
01/05:00pm E 14-18 kts 28.7°c 1011.5 hPa 63% 0.0mm
01/04:30pm E 13-17 kts 29.7°c 1011.5 hPa 57% 0.0mm
01/04:00pm E 11-15 kts 30.2°c 1011.7 hPa 55% 0.0mm
01/03:30pm E 12-15 kts 30.4°c 1011.6 hPa 57% 0.0mm
01/03:00pm E 13-16 kts 31.7°c 1011.7 hPa 49% 0.0mm
01/02:30pm E 13-17 kts 31.6°c 1011.7 hPa 49% 0.0mm
01/02:00pm E 11-14 kts 30.9°c 1011.9 hPa 53% 0.0mm
01/01:30pm E 10-14 kts 31.5°c 1012.2 hPa 54% 0.0mm
01/01:00pm E 10-13 kts 31.0°c 1012.5 hPa 53% 0.0mm
01/12:30pm E 9-13 kts 30.5°c 1012.9 hPa 52% 0.0mm
01/12:00pm ESE 8-11 kts 30.6°c 1013.3 hPa 54% 0.0mm
01/11:30am ESE 9-11 kts 29.8°c 1013.6 hPa 57% 0.0mm
01/11:00am ESE 10-13 kts 30.1°c 1014.0 hPa 60% 0.0mm
01/10:30am SE 10-13 kts 29.6°c 1014.1 hPa 61% 0.0mm
01/10:00am SE 11-13 kts 28.5°c 1014.2 hPa 65% 0.0mm
01/09:30am SE 10-13 kts 28.3°c 1014.2 hPa 68% 0.0mm
01/09:00am SE 10-13 kts 27.9°c 1014.2 hPa 69% 0.0mm
01/08:30am SE 10-13 kts 26.7°c 1013.8 hPa 73% 0.0mm
01/08:00am SSE 8-11 kts 25.8°c 1013.6 hPa 81% 0.0mm
01/07:30am SSE 9-12 kts 24.5°c 1013.5 hPa 86% 0.0mm
01/07:00am SSE 9-11 kts 23.5°c 1013.3 hPa 90% 0.0mm
01/06:30am SSE 7-10 kts 22.7°c 1013.0 hPa 93% 0.0mm
01/06:00am SSE 6-7 kts 22.6°c 1012.8 hPa 94% 0.0mm
01/05:30am SSE 7-9 kts 22.7°c 1012.5 hPa 94% 0.0mm
01/05:00am SSE 5-6 kts 22.5°c 1012.3 hPa 95% 0.0mm
01/04:30am SSE 6-8 kts 22.7°c 1012.0 hPa 95% 0.0mm
01/04:00am SSE 7-8 kts 22.5°c 1011.8 hPa 95% 0.0mm
01/03:30am SSE 5-7 kts 22.4°c 1011.8 hPa 96% 0.0mm
01/03:00am SSE 4-6 kts 22.0°c 1011.9 hPa 95% 0.0mm
01/02:30am SSE 4-5 kts 22.3°c 1012.1 hPa 95% 0.0mm
01/02:00am SSE 4-6 kts 22.4°c 1012.0 hPa 94% 0.0mm
01/01:30am SSE 5-6 kts 22.3°c 1012.4 hPa 95% 0.0mm
01/01:00am SSE 6 kts 22.4°c 1012.9 hPa 96% 0.0mm
01/12:30am SSE 5-6 kts 22.5°c 1013.3 hPa 94% 0.0mm
01/12:00am SSE 4-5 kts 22.4°c 1013.6 hPa 93% 0.0mm